Regional Weather Roundup
Issued by NWS Newport/Morehead, NC

Current Version | Previous Version | Text Only | Print | Product List | Glossary On
Versions: 1 2 3 4 5 6 7 8 9 10 11 12 13 14 15 16 17 18 19 20 21 22 23 24 25 26 27 28 29 30 31 32 33 34 35 36 37 38 39 40 41 42 43 44 45 46 47 48 49 50
000
ASUS42 KMHX 302125
RWRMHX
WEATHER ROUNDUP FOR EASTERN NORTH CAROLINA
NATIONAL WEATHER SERVICE NEWPORT/MOREHEAD CITY NC
500 PM EDT THU JUL 30 2015

NOTE: "FAIR" INDICATES FEW OR NO CLOUDS BELOW 12,000 FEET
WITH NO SIGNIFICANT WEATHER AND/OR OBSTRUCTIONS TO VISIBILITY

NCZ015>017-031-032-045>047-102-103-302200-
NORTH COAST

CITY           SKY/WX    TMP DP  RH WIND       PRES   REMARKS
EDENTON          N/A     89  75  62 S12       29.87F
ELIZABETH CITY MOSUNNY   88  76  67 SW14      29.88F
KITTY HAWK     PTCLDY    91  75  59 S7        29.88F HX 100
MANTEO         MOSUNNY   86  77  75 S16       29.90S

$$

NCZ045>047-081-094-103-104-302200-
CENTRAL COAST

CITY           SKY/WX    TMP DP  RH WIND       PRES   REMARKS
FRISCO         SUNNY     85  76  74 S12       29.91F
SWANQUARTER      N/A     90 N/A N/A S10G20    29.85S

$$

NCZ095-097-098-100-101-302200-
SOUTHERN COAST

CITY           SKY/WX    TMP DP  RH WIND       PRES   REMARKS
BEAUFORT       MOSUNNY   85  76  74 S10       29.89F
CEDAR ISLAND     N/A     88 N/A N/A SE12G20   29.91F
JACKSONVILLE   MOSUNNY   89  74  60 E9        29.87F
PINEY ISLAND   CLEAR    N/A N/A N/A MISG      29.89F
WILMINGTON     SUNNY     89  75  63 E7        29.86F


$$

NCZ011>013-027>030-043-044-078>080-089-090>093-098-302200-
COASTAL PLAIN

CITY           SKY/WX    TMP DP  RH WIND       PRES   REMARKS
AHOSKIE        MOSUNNY   91  72  55 E3        29.86F
CLINTON        SUNNY     95  72  47 E5        29.87F HX 102
ELIZABETHTOWN  SUNNY     94  67  41 CALM      29.85F
GOLDSBORO      SUNNY     94  68  42 VRB1      29.85F
GREENVILLE     SUNNY     95  73  49 S5        29.88F HX 105
HAVELOCK       MOSUNNY   88  74  63 SE9       29.89F
KENANSVILLE    SUNNY     92  64  39 CALM      29.88F
KINSTON        MOSUNNY   91  73  55 E3        29.88F HX 100
NEW BERN       MOSUNNY   90  74  59 S8        29.88F
RICHLANDS      MOSUNNY   93  73  52 SE7       29.87S HX 102
ROCKY MOUNT    MOSUNNY   93  71  48 S5        29.86F HX 100
WASHINGTON     SUNNY     88  76  67 S7        29.87F
WHITEVILLE     SUNNY     93  70  47 NE5       29.85F

$$

AMZ130-135-150-152-154-156-158-170-250-252-270-ANZ085-086-088-633-658-670-302200-
MARINE OBSERVATIONS

STATION/POSITION TIME  TEMP    WIND        PRES    WAVE   SWELL
                       AIR SEA DIR/SP/G            HT/PER HT/PER
                 (UTC) (F)     (DEG/KT/KT) (MB)    (FT/S) (FT/S)
CHESAPEAKE LIGHT 2100   82     170/ 16/ 16 1012.0
64 E VA BEACH    2050   82 82  200/ 16/ 17 1012.0    3/10   2/10
DUCK             2100   86 67  180/ 12/ 15 1011.0
2 E DUCK         2011      75                N/A     2/11   2/11
OREGON INLET     2100   84 86  190/ 17/ 21 1012.4
13E OREGON INLT  2100      82                N/A     4/ 9   2/11
HATTERAS CG      2100   85 84  170/  9/ 12 1012.4
DIAMOND BUOY     2050   84 86  160/ 16/ 19 1012.7    5/ 8   2/ 8
CAPE LOOKOUT     2100   83     150/ 10/ 11 1011.8
BEAUFORT LAB     2100   84 84  180/  9/ 11 1011.4
30 SE NEW RVR IN NOT AVBL
27 SE WRIGHTSVLE 2100   80 84  130/  8/ 10   N/A
5 SE WRIGHTSVLE  2008   83 84  120/  6/  8 1011.7
225 S CAPE HAT   2050   82 81  190/ 21/ 25 1012.9    9/ 9
41 SE CHARLESTON 2050   83 85   30/  6/  6 1011.3    3/ 8   2/ 8

$$



USA.gov is the U.S. government's official web portal to all federal, state and local government web resources and services.